Flag for Germany Weather past 2 weeks in Trier, Rhineland-Palatinate, Germany

Now
22 °F

Snow flurries. Overcast.


Feels Like: 16 °F
Forecast: 16 / 38 °F
Wind: 5 mph from Southwest

Location: Trier-Petrisberg

Current Time: Dec 29, 2014 at 9:11:09 AM

Latest Report: Dec 29, 2014 at 8:00 AM


Visibility: 4 mi

Pressure: 30.54 "Hg

Humidity: 95%

Dew point: 21 °F

Location of TrierLocation

Historic Weather in Trier — Graph

°F

Trier temperature yesterday

Maximum temperature yesterday: 30 °F (at 12:00 AM)
Minimum temperature yesterday: 18 °F (at 11:00 PM)
Average temperature yesterday: 25 °F

Past Weeks' High & Low Weather Summary

 TemperatureHumidityPressure
High54 °F (Dec 18, 6:00 PM)100% (Dec 14, 10:00 AM)30.62 "Hg (Dec 14, 10:00 AM)
Low15 °F (Dec 29, 3:00 AM)54% (Dec 28, 3:00 PM)29.32 "Hg (Dec 27, 3:00 PM)
Average40 °F93%30.14 "Hg
* Reported Dec 14 8:00 AM — Dec 29 8:00 AM, Trier, Weather by CustomWeather, © 2014

Note: Actual official high and low records may vary slightly from our data, if they occured in-between our weather recording intervals... More about our weather records

Advertising

Trier weather history for previous 24 hours

 ConditionsComfort  
Time TempWeatherWind HumidityBarometerVisibility
8:00 AM
Dec 29
22 °FSnow flurries. Overcast.5 mph95%30.54 "Hg4 mi
7:00 AM21 °FOvercast.5 mph96%30.54 "Hg4 mi
6:00 AM20 °FOvercast.3 mph97%30.56 "Hg4 mi
5:00 AM19 °FFog.3 mph97%30.58 "Hg3 mi
4:00 AM17 °FFog.2 mph98%30.60 "Hg3 mi
3:00 AM15 °FFog.2 mph95%30.62 "Hg4 mi
2:00 AM17 °FFog.1 mph96%30.61 "Hg4 mi
1:00 AM16 °FFog.3 mph95%30.61 "Hg4 mi
12:00 AM18 °FClear.1 mph94%30.60 "Hg6 mi
11:00 PM
Dec 28
18 °FClear.1 mph93%30.59 "Hg5 mi
10:00 PM21 °FClear.3 mph89%30.58 "Hg7 mi
9:00 PM21 °FClear.2 mph87%30.55 "Hg10 mi
8:00 PM23 °FClear.6 mph80%30.51 "Hg16 mi
7:00 PM24 °FClear.5 mph79%30.47 "Hg19 mi
6:00 PM24 °FClear.3 mph75%30.43 "Hg19 mi
5:00 PM26 °FClear.5 mph67%30.39 "Hg19 mi
4:00 PM27 °FSunny.7 mph58%30.34 "Hg16 mi
3:00 PM27 °FSunny.9 mph54%30.31 "Hg19 mi
2:00 PM27 °FSunny.9 mph55%30.27 "Hg19 mi
1:00 PM27 °FSunny.8 mph59%30.24 "Hg19 mi
12:00 PM26 °FPassing clouds.10 mph65%30.20 "Hg19 mi
11:00 AM25 °FPassing clouds.8 mph74%30.16 "Hg22 mi
10:00 AM24 °FPartly sunny.9 mph81%30.11 "Hg19 mi
9:00 AM25 °FOvercast.9 mph82%30.04 "Hg19 mi
Weather by CustomWeather, © 2014

See weather overviewHow to use our weather pages